GSAT0219 (GALILEO 23) (43566 NORAD) Tracking and Keplerian Element Data

This shows tracking and keplerian element data for the satellite.

Feedback or suggestion? Click here.




ElementValue
Catalog43566
NameGSAT0219 (GALILEO 23)
Epoch Orbit3658
Epoch Day159.82176746
Epoch Year2024
RAAN1.7227
Inclination57.3069
Eccentricity0.0001991
Argument of Perigee332.736
Mean Anonmoly27.2861
Mean Motion1.70475776
Decay Rate-9.9E-07
L11 43566U 18060C 24159.82176746 -.00000099 00000+0 00000+0 0 9998
L22 43566 57.3069 1.7227 0001991 332.7360 27.2861 1.70475776 36581



Live tracking and technical data element details for GSAT0219 (GALILEO 23) (NORAD 43566). GSAT0219 (GALILEO 23) can be tracked NOW for your location showing map with azimuth and elevation plus other details from your city location.







IsCatalogInMostPopularTable: catalog: 43566, numindb: 656
Update: records affected: 1



GetName: 43566 GSAT0219 (GALILEO 23)

Hit Count: updated at: Mon, 17 Jun 2024 23:26:23 GMT